QPF
0.00 0.00 0.00 0.00 0.00 0.00 0.00 0.00 0.00 0.00 0.00 0.00 0.00 0.00 0.00 0.00 0.01 0.01 0.00 0.00 0.00 0.00 0.00 0.01 0.01 0.02 0.03 0.03 0.02 0.02 0.02 0.02 0.02 0.02 0.03 0.04 0.04 0.03 0.02 0.02 0.03 0.03 0.03 0.05 0.04 0.04 0.03 0.02 0.03
0.00 0.00 0.00 0.00 0.00 0.00 0.00 0.00 0.00 0.00 0.00 0.00 0.00 0.00 0.00 0.00 0.01 0.01 0.01 0.01 0.01 0.00 0.01 0.02 0.03 0.04 0.04 0.04 0.04 0.04 0.02 0.01 0.01 0.01 0.03 0.05 0.05 0.04 0.04 0.04 0.04 0.04 0.04 0.05 0.06 0.05 0.04 0.02 0.02
0.00 0.00 0.00 0.00 0.00 0.00 0.00 0.00 0.00 0.00 0.00 0.00 0.00 0.00 0.00 0.00 0.00 0.01 0.01 0.02 0.01 0.01 0.02 0.04 0.05 0.06 0.05 0.05 0.05 0.05 0.03 0.02 0.01 0.01 0.01 0.04 0.04 0.04 0.04 0.06 0.05 0.04 0.04 0.05 0.06 0.05 0.04 0.04 0.03
0.00 0.00 0.00 0.00 0.00 0.00 0.00 0.00 0.00 0.00 0.00 0.00 0.00 0.00 0.00 0.00 0.00 0.00 0.01 0.01 0.02 0.01 0.02 0.03 0.06 0.08 0.05 0.03 0.04 0.04 0.04 0.03 0.02 0.01 0.01 0.02 0.03 0.03 0.05 0.08 0.07 0.06 0.05 0.05 0.05 0.05 0.04 0.04 0.03
0.00 0.00 0.00 0.00 0.00 0.00 0.00 0.00 0.00 0.00 0.00 0.00 0.00 0.00 0.00 0.00 0.00 0.00 0.00 0.01 0.01 0.01 0.01 0.03 0.05 0.06 0.04 0.04 0.04 0.04 0.05 0.04 0.03 0.02 0.01 0.02 0.03 0.04 0.04 0.06 0.06 0.06 0.07 0.08 0.07 0.05 0.05 0.05 0.03
0.00 0.00 0.00 0.00 0.00 0.00 0.00 0.00 0.00 0.00 0.00 0.00 0.00 0.00 0.00 0.00 0.00 0.00 0.01 0.01 0.01 0.02 0.02 0.02 0.03 0.05 0.05 0.03 0.03 0.04 0.04 0.04 0.03 0.03 0.02 0.02 0.04 0.04 0.04 0.03 0.03 0.03 0.05 0.07 0.07 0.06 0.04 0.03 0.02
0.00 0.00 0.00 0.00 0.00 0.00 0.00 0.00 0.00 0.00 0.00 0.00 0.00 0.00 0.00 0.00 0.00 0.00 0.01 0.01 0.01 0.02 0.03 0.04 0.03 0.03 0.05 0.06 0.05 0.04 0.04 0.04 0.03 0.03 0.03 0.02 0.03 0.03 0.03 0.03 0.03 0.03 0.03 0.04 0.05 0.06 0.04 0.02 0.01
0.00 0.00 0.00 0.00 0.00 0.00 0.00 0.00 0.00 0.00 0.00 0.00 0.00 0.00 0.00 0.00 0.00 0.00 0.01 0.01 0.01 0.01 0.02 0.03 0.04 0.03 0.04 0.06 0.06 0.05 0.05 0.05 0.04 0.03 0.02 0.02 0.02 0.03 0.03 0.03 0.04 0.04 0.03 0.04 0.04 0.05 0.05 0.03 0.01
0.00 0.00 0.00 0.00 0.00 0.00 0.00 0.00 0.00 0.00 0.00 0.00 0.00 0.00 0.00 0.00 0.00 0.01 0.01 0.01 0.01 0.01 0.02 0.01 0.03 0.05 0.05 0.05 0.07 0.08 0.07 0.06 0.04 0.03 0.02 0.02 0.02 0.02 0.02 0.02 0.03 0.03 0.03 0.03 0.04 0.05 0.06 0.05 0.03
0.00 0.00 0.00 0.00 0.00 0.00 0.00 0.00 0.00 0.00 0.00 0.00 0.00 0.00 0.00 0.00 0.00 0.01 0.01 0.02 0.02 0.02 0.02 0.02 0.02 0.02 0.03 0.03 0.06 0.08 0.08 0.09 0.08 0.05 0.04 0.03 0.02 0.01 0.01 0.01 0.02 0.03 0.02 0.03 0.03 0.04 0.06 0.07 0.05
0.00 0.00 0.00 0.00 0.00 0.00 0.00 0.00 0.00 0.00 0.00 0.00 0.00 0.00 0.00 0.00 0.00 0.01 0.01 0.01 0.01 0.02 0.02 0.02 0.02 0.02 0.02 0.02 0.02 0.03 0.04 0.06 0.07 0.06 0.04 0.03 0.03 0.03 0.03 0.02 0.02 0.03 0.02 0.02 0.02 0.04 0.04 0.05 0.05
0.00 0.00 0.00 0.00 0.00 0.00 0.00 0.00 0.00 0.00 0.00 0.00 0.00 0.00 0.00 0.00 0.00 0.00 0.00 0.01 0.01 0.01 0.02 0.03 0.03 0.03 0.02 0.02 0.02 0.02 0.02 0.04 0.05 0.06 0.04 0.02 0.02 0.02 0.03 0.03 0.02 0.02 0.03 0.02 0.02 0.03 0.03 0.03 0.03
0.00 0.00 0.00 0.00 0.00 0.00 0.00 0.00 0.00 0.00 0.00 0.00 0.00 0.00 0.00 0.00 0.00 0.00 0.01 0.01 0.01 0.01 0.02 0.03 0.04 0.04 0.03 0.03 0.02 0.02 0.02 0.03 0.05 0.06 0.06 0.04 0.01 0.01 0.02 0.03 0.03 0.03 0.02 0.02 0.02 0.03 0.04 0.04 0.03
0.00 0.00 0.00 0.00 0.00 0.00 0.00 0.00 0.00 0.00 0.00 0.00 0.00 0.00 0.00 0.00 0.00 0.00 0.01 0.01 0.01 0.02 0.02 0.03 0.03 0.04 0.04 0.04 0.03 0.03 0.03 0.02 0.03 0.04 0.05 0.05 0.03 0.01 0.01 0.02 0.02 0.03 0.03 0.02 0.02 0.03 0.03 0.04 0.05
0.00 0.00 0.00 0.00 0.00 0.00 0.00 0.00 0.00 0.00 0.00 0.00 0.00 0.00 0.00 0.00 0.00 0.00 0.00 0.00 0.01 0.01 0.02 0.02 0.03 0.04 0.05 0.04 0.03 0.03 0.03 0.02 0.02 0.03 0.03 0.03 0.03 0.02 0.02 0.01 0.01 0.01 0.03 0.03 0.02 0.03 0.03 0.04 0.04
0.01 0.00 0.00 0.00 0.00 0.00 0.00 0.00 0.00 0.00 0.00 0.00 0.00 0.00 0.00 0.00 0.00 0.00 0.00 0.00 0.00 0.01 0.02 0.03 0.03 0.04 0.04 0.04 0.03 0.04 0.04 0.03 0.02 0.02 0.02 0.02 0.02 0.02 0.01 0.02 0.01 0.01 0.02 0.03 0.03 0.03 0.03 0.04 0.05
0.01 0.01 0.00 0.00 0.00 0.00 0.00 0.00 0.00 0.00 0.00 0.00 0.00 0.00 0.00 0.00 0.00 0.00 0.00 0.00 0.00 0.01 0.02 0.04 0.03 0.03 0.03 0.04 0.06 0.05 0.06 0.04 0.02 0.02 0.01 0.01 0.01 0.01 0.01 0.02 0.02 0.02 0.03 0.03 0.03 0.03 0.03 0.04 0.05
0.02 0.02 0.01 0.01 0.00 0.00 0.00 0.00 0.00 0.00 0.00 0.00 0.00 0.00 0.00 0.00 0.00 0.00 0.01 0.01 0.01 0.01 0.02 0.05 0.04 0.03 0.03 0.03 0.06 0.06 0.07 0.06 0.03 0.01 0.01 0.00 0.01 0.01 0.01 0.02 0.03 0.03 0.03 0.04 0.04 0.03 0.03 0.04 0.05
0.01 0.01 0.01 0.01 0.01 0.01 0.01 0.00 0.00 0.00 0.00 0.00 0.00 0.00 0.00 0.00 0.00 0.00 0.01 0.01 0.01 0.01 0.01 0.03 0.05 0.04 0.03 0.04 0.04 0.05 0.06 0.06 0.04 0.02 0.01 0.01 0.01 0.01 0.01 0.01 0.02 0.03 0.03 0.03 0.04 0.04 0.03 0.04 0.04
0.00 0.01 0.01 0.01 0.01 0.01 0.01 0.01 0.01 0.00 0.00 0.00 0.00 0.00 0.00 0.00 0.00 0.00 0.00 0.01 0.01 0.01 0.01 0.02 0.04 0.06 0.05 0.04 0.03 0.03 0.05 0.05 0.03 0.03 0.02 0.01 0.01 0.01 0.01 0.01 0.02 0.02 0.03 0.04 0.04 0.04 0.04 0.04 0.04
0.00 0.00 0.00 0.01 0.01 0.01 0.01 0.01 0.01 0.00 0.00 0.00 0.00 0.00 0.00 0.00 0.00 0.00 0.00 0.01 0.01 0.01 0.01 0.01 0.02 0.03 0.04 0.04 0.04 0.03 0.03 0.04 0.04 0.04 0.03 0.02 0.02 0.02 0.02 0.01 0.02 0.02 0.03 0.04 0.04 0.04 0.04 0.04 0.04
0.01 0.00 0.00 0.00 0.01 0.01 0.01 0.02 0.01 0.01 0.00 0.00 0.00 0.00 0.00 0.00 0.00 0.00 0.00 0.00 0.00 0.00 0.00 0.01 0.01 0.02 0.03 0.04 0.04 0.03 0.02 0.02 0.04 0.04 0.04 0.04 0.03 0.03 0.03 0.03 0.03 0.04 0.04 0.04 0.04 0.04 0.04 0.04 0.04
0.01 0.00 0.00 0.00 0.01 0.02 0.02 0.02 0.01 0.01 0.00 0.00 0.00 0.00 0.00 0.00 0.00 0.00 0.01 0.01 0.01 0.01 0.01 0.01 0.01 0.02 0.02 0.03 0.03 0.04 0.03 0.03 0.02 0.04 0.05 0.05 0.03 0.03 0.03 0.03 0.04 0.05 0.05 0.06 0.05 0.04 0.04 0.04 0.04
0.00 0.00 0.01 0.01 0.02 0.02 0.02 0.02 0.02 0.01 0.01 0.00 0.00 0.00 0.00 0.00 0.01 0.01 0.01 0.01 0.02 0.02 0.02 0.02 0.02 0.02 0.02 0.03 0.03 0.03 0.03 0.03 0.04 0.03 0.04 0.05 0.04 0.03 0.03 0.03 0.02 0.04 0.06 0.08 0.06 0.05 0.05 0.05 0.05
0.01 0.02 0.02 0.03 0.03 0.01 0.01 0.03 0.03 0.02 0.01 0.01 0.01 0.00 0.00 0.00 0.01 0.01 0.01 0.02 0.01 0.02 0.02 0.02 0.03 0.03 0.03 0.03 0.04 0.05 0.04 0.03 0.04 0.04 0.03 0.04 0.04 0.03 0.02 0.02 0.02 0.02 0.03 0.04 0.05 0.05 0.06 0.06 0.06
0.03 0.03 0.03 0.03 0.02 0.02 0.02 0.03 0.03 0.02 0.02 0.01 0.01 0.00 0.00 0.01 0.01 0.02 0.02 0.02 0.02 0.02 0.02 0.03 0.04 0.03 0.02 0.02 0.03 0.04 0.06 0.04 0.03 0.03 0.04 0.04 0.03 0.03 0.02 0.02 0.02 0.01 0.01 0.02 0.03 0.03 0.04 0.05 0.07
0.02 0.02 0.03 0.03 0.02 0.03 0.04 0.03 0.03 0.02 0.02 0.01 0.01 0.01 0.01 0.01 0.01 0.02 0.02 0.02 0.02 0.02 0.02 0.03 0.03 0.03 0.02 0.01 0.02 0.02 0.04 0.05 0.04 0.03 0.03 0.04 0.04 0.03 0.03 0.02 0.01 0.01 0.01 0.01 0.02 0.02 0.02 0.03 0.04
0.01 0.02 0.02 0.03 0.04 0.03 0.03 0.02 0.03 0.03 0.03 0.02 0.02 0.02 0.01 0.01 0.01 0.02 0.02 0.02 0.02 0.01 0.02 0.02 0.02 0.03 0.02 0.01 0.01 0.01 0.01 0.02 0.04 0.03 0.04 0.03 0.03 0.03 0.03 0.02 0.01 0.01 0.01 0.01 0.01 0.02 0.02 0.03 0.03
0.01 0.02 0.03 0.03 0.04 0.04 0.02 0.03 0.04 0.04 0.03 0.03 0.02 0.02 0.02 0.03 0.03 0.03 0.03 0.03 0.02 0.02 0.01 0.02 0.02 0.02 0.02 0.01 0.01 0.01 0.01 0.01 0.02 0.02 0.02 0.03 0.03 0.03 0.03 0.02 0.01 0.01 0.01 0.01 0.01 0.02 0.02 0.02 0.04
0.01 0.02 0.02 0.04 0.04 0.03 0.03 0.03 0.03 0.03 0.03 0.03 0.03 0.03 0.03 0.04 0.05 0.05 0.05 0.04 0.03 0.03 0.03 0.03 0.03 0.02 0.03 0.03 0.02 0.01 0.01 0.02 0.02 0.02 0.02 0.01 0.01 0.02 0.03 0.03 0.03 0.02 0.01 0.02 0.02 0.02 0.02 0.02 0.04
MSLP
1014.28 1014.35 1014.61 1015.05 1015.59 1016.15 1016.65 1017.03 1017.26 1017.33 1017.31 1017.25 1017.22 1017.28 1017.43 1017.67 1017.94 1018.19 1018.38 1018.47 1018.47 1018.39 1018.28 1018.18 1018.11 1018.08 1018.06 1018.02 1017.93 1017.77 1017.53 1017.25 1016.96 1016.71 1016.54 1016.47 1016.49 1016.57 1016.68 1016.77 1016.81 1016.80 1016.76 1016.71 1016.69 1016.71 1016.78 1016.89 1016.99
1014.35 1014.50 1014.83 1015.33 1015.91 1016.49 1017.00 1017.39 1017.61 1017.68 1017.66 1017.61 1017.59 1017.65 1017.79 1018.00 1018.25 1018.46 1018.61 1018.67 1018.65 1018.56 1018.46 1018.37 1018.32 1018.30 1018.30 1018.28 1018.20 1018.04 1017.80 1017.51 1017.22 1016.96 1016.78 1016.69 1016.68 1016.72 1016.77 1016.81 1016.80 1016.75 1016.69 1016.64 1016.64 1016.70 1016.82 1016.99 1017.15
1014.54 1014.76 1015.16 1015.68 1016.26 1016.83 1017.31 1017.65 1017.84 1017.90 1017.88 1017.85 1017.85 1017.92 1018.08 1018.30 1018.54 1018.74 1018.87 1018.91 1018.87 1018.77 1018.66 1018.58 1018.53 1018.53 1018.53 1018.52 1018.45 1018.30 1018.08 1017.81 1017.53 1017.28 1017.09 1016.98 1016.93 1016.92 1016.91 1016.88 1016.80 1016.71 1016.61 1016.55 1016.55 1016.65 1016.82 1017.03 1017.24
1014.84 1015.14 1015.58 1016.10 1016.65 1017.16 1017.57 1017.85 1017.99 1018.02 1017.99 1017.97 1018.00 1018.11 1018.30 1018.55 1018.80 1019.01 1019.13 1019.17 1019.12 1019.02 1018.91 1018.82 1018.77 1018.76 1018.76 1018.75 1018.68 1018.55 1018.35 1018.11 1017.85 1017.62 1017.44 1017.32 1017.24 1017.18 1017.10 1017.00 1016.86 1016.70 1016.55 1016.47 1016.47 1016.58 1016.78 1017.04 1017.29
1015.27 1015.63 1016.09 1016.59 1017.08 1017.51 1017.82 1018.01 1018.08 1018.06 1018.03 1018.02 1018.08 1018.23 1018.46 1018.73 1019.01 1019.24 1019.38 1019.43 1019.39 1019.30 1019.18 1019.09 1019.03 1019.01 1019.00 1018.97 1018.91 1018.78 1018.61 1018.39 1018.17 1017.96 1017.80 1017.67 1017.58 1017.48 1017.35 1017.18 1016.98 1016.76 1016.57 1016.46 1016.44 1016.54 1016.74 1017.01 1017.28
1015.79 1016.19 1016.65 1017.11 1017.53 1017.86 1018.07 1018.16 1018.16 1018.11 1018.05 1018.05 1018.13 1018.31 1018.57 1018.87 1019.18 1019.43 1019.60 1019.67 1019.66 1019.58 1019.48 1019.39 1019.32 1019.28 1019.25 1019.21 1019.13 1019.01 1018.84 1018.65 1018.45 1018.28 1018.13 1018.02 1017.91 1017.79 1017.63 1017.43 1017.18 1016.92 1016.68 1016.53 1016.47 1016.54 1016.71 1016.96 1017.22
1016.33 1016.77 1017.21 1017.62 1017.96 1018.20 1018.32 1018.34 1018.28 1018.19 1018.12 1018.12 1018.20 1018.39 1018.66 1018.97 1019.29 1019.56 1019.75 1019.86 1019.88 1019.84 1019.77 1019.70 1019.63 1019.58 1019.52 1019.46 1019.36 1019.22 1019.06 1018.87 1018.70 1018.55 1018.42 1018.32 1018.22 1018.09 1017.92 1017.70 1017.43 1017.14 1016.88 1016.68 1016.57 1016.58 1016.70 1016.88 1017.11
1016.86 1017.29 1017.71 1018.07 1018.34 1018.51 1018.58 1018.55 1018.47 1018.36 1018.28 1018.27 1018.34 1018.50 1018.75 1019.04 1019.34 1019.61 1019.82 1019.96 1020.03 1020.04 1020.02 1019.98 1019.93 1019.88 1019.81 1019.72 1019.59 1019.44 1019.26 1019.08 1018.91 1018.76 1018.64 1018.55 1018.46 1018.34 1018.18 1017.97 1017.70 1017.41 1017.12 1016.89 1016.73 1016.66 1016.69 1016.80 1016.95
1017.30 1017.72 1018.10 1018.41 1018.65 1018.79 1018.83 1018.80 1018.72 1018.62 1018.54 1018.51 1018.55 1018.66 1018.84 1019.07 1019.32 1019.57 1019.78 1019.95 1020.07 1020.15 1020.19 1020.20 1020.19 1020.15 1020.08 1019.98 1019.83 1019.66 1019.47 1019.27 1019.08 1018.93 1018.82 1018.72 1018.63 1018.53 1018.39 1018.19 1017.94 1017.67 1017.38 1017.12 1016.91 1016.77 1016.70 1016.71 1016.76
1017.64 1018.02 1018.36 1018.65 1018.87 1019.01 1019.09 1019.10 1019.06 1018.99 1018.92 1018.87 1018.85 1018.88 1018.96 1019.09 1019.26 1019.45 1019.64 1019.83 1020.00 1020.14 1020.26 1020.34 1020.38 1020.38 1020.32 1020.22 1020.07 1019.88 1019.67 1019.45 1019.25 1019.08 1018.95 1018.84 1018.75 1018.65 1018.52 1018.35 1018.13 1017.88 1017.61 1017.34 1017.09 1016.88 1016.73 1016.64 1016.59
1017.88 1018.21 1018.52 1018.79 1019.03 1019.22 1019.36 1019.45 1019.49 1019.47 1019.42 1019.34 1019.25 1019.18 1019.13 1019.13 1019.19 1019.29 1019.45 1019.64 1019.84 1020.05 1020.23 1020.39 1020.49 1020.53 1020.50 1020.42 1020.27 1020.08 1019.86 1019.63 1019.42 1019.23 1019.07 1018.93 1018.82 1018.71 1018.59 1018.44 1018.26 1018.04 1017.79 1017.52 1017.26 1017.00 1016.78 1016.59 1016.46
1018.07 1018.35 1018.63 1018.91 1019.18 1019.44 1019.68 1019.88 1020.02 1020.08 1020.05 1019.95 1019.78 1019.59 1019.40 1019.25 1019.17 1019.17 1019.27 1019.44 1019.66 1019.91 1020.15 1020.37 1020.52 1020.61 1020.62 1020.55 1020.43 1020.25 1020.04 1019.81 1019.59 1019.38 1019.19 1019.03 1018.89 1018.76 1018.63 1018.48 1018.32 1018.13 1017.91 1017.67 1017.40 1017.12 1016.84 1016.60 1016.39
1018.26 1018.51 1018.77 1019.06 1019.39 1019.74 1020.10 1020.42 1020.68 1020.82 1020.83 1020.71 1020.47 1020.16 1019.82 1019.52 1019.30 1019.19 1019.21 1019.34 1019.55 1019.82 1020.10 1020.34 1020.53 1020.64 1020.68 1020.64 1020.53 1020.38 1020.19 1019.99 1019.77 1019.56 1019.35 1019.16 1018.98 1018.82 1018.66 1018.51 1018.35 1018.18 1017.99 1017.76 1017.50 1017.22 1016.93 1016.65 1016.40
1018.53 1018.74 1019.00 1019.32 1019.71 1020.16 1020.64 1021.10 1021.47 1021.71 1021.77 1021.64 1021.35 1020.94 1020.48 1020.04 1019.69 1019.47 1019.40 1019.47 1019.65 1019.89 1020.16 1020.40 1020.58 1020.68 1020.71 1020.68 1020.59 1020.47 1020.31 1020.14 1019.96 1019.76 1019.55 1019.33 1019.12 1018.91 1018.72 1018.54 1018.37 1018.20 1018.02 1017.81 1017.58 1017.31 1017.02 1016.73 1016.47
1018.91 1019.10 1019.36 1019.70 1020.15 1020.70 1021.29 1021.88 1022.39 1022.72 1022.85 1022.75 1022.44 1021.97 1021.42 1020.88 1020.42 1020.09 1019.93 1019.93 1020.04 1020.23 1020.43 1020.61 1020.74 1020.79 1020.78 1020.72 1020.63 1020.52 1020.40 1020.27 1020.12 1019.96 1019.76 1019.54 1019.30 1019.05 1018.81 1018.59 1018.39 1018.20 1018.02 1017.83 1017.61 1017.37 1017.10 1016.82 1016.56
1019.40 1019.58 1019.83 1020.19 1020.69 1021.32 1022.03 1022.74 1023.37 1023.83 1024.05 1024.01 1023.72 1023.24 1022.65 1022.05 1021.51 1021.11 1020.86 1020.77 1020.80 1020.89 1020.99 1021.06 1021.08 1021.03 1020.93 1020.81 1020.67 1020.56 1020.45 1020.36 1020.26 1020.13 1019.96 1019.75 1019.50 1019.22 1018.94 1018.67 1018.43 1018.21 1018.01 1017.82 1017.62 1017.39 1017.15 1016.90 1016.66
1019.96 1020.11 1020.35 1020.71 1021.25 1021.94 1022.75 1023.59 1024.35 1024.95 1025.29 1025.35 1025.14 1024.70 1024.13 1023.51 1022.94 1022.48 1022.17 1021.99 1021.91 1021.89 1021.86 1021.78 1021.64 1021.45 1021.21 1020.98 1020.77 1020.61 1020.49 1020.41 1020.34 1020.25 1020.12 1019.93 1019.68 1019.39 1019.07 1018.76 1018.47 1018.22 1017.99 1017.79 1017.59 1017.38 1017.16 1016.94 1016.73
1020.53 1020.64 1020.83 1021.19 1021.74 1022.48 1023.37 1024.33 1025.24 1025.99 1026.49 1026.70 1026.61 1026.27 1025.76 1025.17 1024.61 1024.13 1023.76 1023.51 1023.32 1023.17 1022.99 1022.75 1022.44 1022.06 1021.66 1021.28 1020.95 1020.70 1020.53 1020.44 1020.38 1020.31 1020.21 1020.04 1019.80 1019.50 1019.17 1018.83 1018.51 1018.22 1017.96 1017.74 1017.54 1017.35 1017.15 1016.95 1016.77
1021.03 1021.07 1021.21 1021.52 1022.07 1022.85 1023.82 1024.90 1025.96 1026.88 1027.57 1027.95 1028.03 1027.82 1027.42 1026.91 1026.37 1025.89 1025.49 1025.17 1024.90 1024.63 1024.31 1023.91 1023.41 1022.86 1022.28 1021.72 1021.24 1020.87 1020.62 1020.46 1020.37 1020.30 1020.21 1020.06 1019.83 1019.55 1019.21 1018.86 1018.52 1018.20 1017.93 1017.70 1017.50 1017.31 1017.13 1016.95 1016.79
1021.42 1021.37 1021.42 1021.68 1022.21 1023.01 1024.06 1025.25 1026.47 1027.58 1028.46 1029.05 1029.30 1029.26 1028.99 1028.56 1028.08 1027.62 1027.20 1026.83 1026.49 1026.12 1025.68 1025.15 1024.51 1023.79 1023.04 1022.31 1021.67 1021.15 1020.77 1020.51 1020.35 1020.24 1020.13 1019.98 1019.77 1019.50 1019.18 1018.83 1018.50 1018.18 1017.91 1017.67 1017.47 1017.30 1017.13 1016.97 1016.83
1021.68 1021.51 1021.47 1021.66 1022.16 1022.99 1024.10 1025.41 1026.78 1028.08 1029.16 1029.94 1030.39 1030.51 1030.35 1030.02 1029.59 1029.14 1028.71 1028.31 1027.91 1027.48 1026.98 1026.36 1025.62 1024.78 1023.90 1023.03 1022.23 1021.55 1021.02 1020.63 1020.35 1020.16 1020.00 1019.83 1019.62 1019.36 1019.07 1018.76 1018.44 1018.15 1017.90 1017.68 1017.50 1017.34 1017.19 1017.05 1016.91
1021.85 1021.55 1021.41 1021.54 1022.01 1022.86 1024.04 1025.45 1026.97 1028.44 1029.70 1030.66 1031.27 1031.52 1031.47 1031.20 1030.80 1030.35 1029.91 1029.49 1029.06 1028.61 1028.07 1027.43 1026.65 1025.76 1024.80 1023.83 1022.90 1022.07 1021.38 1020.84 1020.43 1020.12 1019.87 1019.65 1019.43 1019.18 1018.91 1018.64 1018.37 1018.12 1017.91 1017.73 1017.57 1017.44 1017.31 1017.19 1017.06
1021.99 1021.59 1021.36 1021.43 1021.89 1022.76 1023.99 1025.50 1027.14 1028.75 1030.15 1031.25 1031.98 1032.32 1032.34 1032.10 1031.70 1031.23 1030.76 1030.31 1029.88 1029.43 1028.91 1028.29 1027.54 1026.66 1025.68 1024.66 1023.64 1022.70 1021.86 1021.16 1020.59 1020.15 1019.79 1019.50 1019.23 1018.98 1018.74 1018.51 1018.29 1018.10 1017.94 1017.80 1017.69 1017.59 1017.50 1017.39 1017.27
1022.19 1021.71 1021.43 1021.47 1021.92 1022.81 1024.09 1025.67 1027.40 1029.09 1030.60 1031.78 1032.58 1032.97 1033.00 1032.75 1032.31 1031.80 1031.29 1030.81 1030.37 1029.93 1029.46 1028.90 1028.22 1027.41 1026.47 1025.45 1024.40 1023.38 1022.42 1021.58 1020.86 1020.27 1019.79 1019.41 1019.08 1018.81 1018.58 1018.38 1018.21 1018.08 1017.97 1017.89 1017.83 1017.77 1017.70 1017.62 1017.51
1022.53 1022.01 1021.70 1021.74 1022.20 1023.11 1024.42 1026.04 1027.81 1029.55 1031.09 1032.31 1033.12 1033.50 1033.51 1033.21 1032.72 1032.14 1031.57 1031.05 1030.60 1030.18 1029.76 1029.29 1028.71 1027.99 1027.13 1026.16 1025.12 1024.06 1023.03 1022.07 1021.22 1020.50 1019.89 1019.40 1019.01 1018.70 1018.45 1018.27 1018.13 1018.04 1017.99 1017.95 1017.93 1017.91 1017.87 1017.82 1017.73
1023.05 1022.53 1022.24 1022.30 1022.78 1023.70 1025.03 1026.64 1028.40 1030.13 1031.66 1032.85 1033.63 1033.97 1033.92 1033.56 1032.99 1032.35 1031.71 1031.14 1030.66 1030.25 1029.88 1029.49 1029.00 1028.39 1027.64 1026.75 1025.75 1024.69 1023.62 1022.58 1021.63 1020.79 1020.07 1019.48 1019.00 1018.64 1018.36 1018.17 1018.05 1017.98 1017.95 1017.95 1017.96 1017.97 1017.97 1017.93 1017.86
1023.76 1023.29 1023.05 1023.14 1023.65 1024.57 1025.87 1027.44 1029.15 1030.81 1032.27 1033.39 1034.10 1034.39 1034.27 1033.85 1033.22 1032.50 1031.79 1031.17 1030.66 1030.25 1029.91 1029.56 1029.16 1028.64 1027.98 1027.18 1026.24 1025.21 1024.13 1023.06 1022.04 1021.12 1020.30 1019.62 1019.06 1018.62 1018.30 1018.08 1017.94 1017.87 1017.85 1017.86 1017.89 1017.92 1017.93 1017.92 1017.87
1024.65 1024.26 1024.09 1024.23 1024.75 1025.65 1026.89 1028.38 1029.97 1031.51 1032.86 1033.89 1034.52 1034.74 1034.57 1034.10 1033.43 1032.67 1031.92 1031.25 1030.70 1030.26 1029.91 1029.59 1029.22 1028.77 1028.18 1027.45 1026.57 1025.59 1024.54 1023.46 1022.41 1021.43 1020.54 1019.78 1019.14 1018.63 1018.25 1017.97 1017.80 1017.70 1017.66 1017.66 1017.69 1017.73 1017.76 1017.76 1017.74
1025.68 1025.39 1025.30 1025.48 1026.00 1026.85 1027.99 1029.34 1030.78 1032.17 1033.37 1034.28 1034.83 1034.99 1034.81 1034.33 1033.65 1032.88 1032.11 1031.42 1030.83 1030.35 1029.96 1029.61 1029.25 1028.81 1028.25 1027.57 1026.75 1025.81 1024.79 1023.73 1022.68 1021.67 1020.75 1019.92 1019.22 1018.64 1018.18 1017.84 1017.60 1017.46 1017.38 1017.36 1017.38 1017.41 1017.45 1017.47 1017.48
1026.80 1026.61 1026.59 1026.81 1027.31 1028.07 1029.09 1030.27 1031.52 1032.72 1033.76 1034.54 1035.01 1035.15 1034.96 1034.51 1033.88 1033.15 1032.40 1031.69 1031.08 1030.55 1030.10 1029.70 1029.28 1028.81 1028.25 1027.58 1026.79 1025.89 1024.92 1023.89 1022.85 1021.85 1020.90 1020.03 1019.27 1018.62 1018.08 1017.67 1017.36 1017.15 1017.03 1016.97 1016.97 1017.00 1017.04 1017.09 1017.12
Thickness
5697 5699 5702 5701 5697 5692 5693 5698 5698 5696 5697 5701 5702 5703 5706 5708 5706 5703 5707 5713 5713 5712 5711 5707 5706 5705 5704 5704 5704 5703 5703 5703 5704 5704 5705 5705 5706 5706 5707 5707 5707 5708 5708 5708 5709 5709 5709 5709 5709
5694 5696 5697 5695 5690 5688 5692 5696 5692 5695 5696 5695 5696 5698 5699 5703 5705 5704 5704 5706 5708 5708 5706 5704 5702 5701 5700 5700 5699 5699 5699 5699 5699 5700 5701 5701 5702 5702 5703 5703 5704 5704 5704 5705 5705 5705 5705 5705 5705
5691 5692 5690 5687 5685 5690 5691 5691 5692 5690 5690 5690 5691 5694 5695 5697 5699 5699 5700 5701 5702 5702 5701 5699 5697 5696 5695 5695 5695 5694 5694 5694 5695 5695 5696 5697 5698 5698 5699 5699 5700 5700 5700 5701 5701 5701 5701 5701 5701
5687 5685 5683 5680 5680 5684 5685 5686 5684 5683 5684 5685 5687 5687 5690 5692 5693 5694 5695 5696 5697 5696 5695 5693 5691 5691 5690 5690 5690 5690 5689 5690 5690 5691 5691 5692 5693 5694 5695 5695 5695 5696 5696 5696 5696 5697 5697 5697 5697
5682 5679 5673 5672 5676 5680 5680 5679 5678 5679 5681 5682 5681 5683 5684 5686 5687 5688 5689 5689 5690 5690 5689 5687 5685 5685 5684 5684 5684 5684 5684 5685 5685 5686 5686 5687 5688 5689 5689 5690 5690 5691 5692 5692 5692 5692 5692 5692 5692
5672 5672 5669 5672 5675 5675 5675 5674 5673 5675 5677 5676 5675 5677 5680 5680 5680 5681 5682 5682 5683 5683 5682 5681 5679 5679 5678 5678 5678 5678 5678 5679 5680 5680 5681 5682 5682 5683 5684 5684 5685 5686 5686 5686 5687 5687 5687 5687 5687
5665 5664 5665 5668 5668 5669 5670 5670 5670 5672 5672 5672 5673 5672 5676 5675 5675 5675 5675 5675 5676 5675 5675 5674 5673 5673 5672 5672 5672 5672 5672 5673 5674 5674 5675 5676 5676 5677 5678 5679 5679 5680 5680 5681 5681 5682 5682 5682 5682
5662 5659 5657 5660 5662 5665 5666 5664 5665 5665 5668 5669 5668 5668 5670 5669 5668 5667 5667 5668 5668 5668 5668 5668 5667 5667 5667 5666 5666 5666 5666 5667 5667 5668 5668 5669 5670 5671 5672 5673 5673 5674 5675 5675 5675 5676 5676 5676 5676
5653 5650 5655 5658 5657 5660 5659 5657 5658 5659 5660 5659 5661 5662 5662 5662 5660 5659 5659 5659 5660 5660 5661 5661 5661 5661 5661 5660 5660 5660 5660 5660 5661 5662 5662 5663 5665 5666 5666 5667 5667 5668 5669 5669 5670 5670 5670 5671 5671
5646 5646 5653 5652 5652 5652 5650 5651 5652 5652 5652 5653 5653 5653 5652 5652 5652 5652 5653 5654 5654 5654 5654 5655 5655 5655 5655 5654 5654 5654 5655 5655 5656 5657 5657 5658 5659 5661 5661 5660 5660 5662 5663 5663 5664 5664 5665 5665 5666
5639 5641 5643 5641 5641 5641 5641 5642 5643 5644 5646 5648 5648 5647 5645 5644 5645 5646 5647 5649 5649 5649 5648 5648 5648 5648 5648 5648 5649 5649 5649 5649 5650 5651 5652 5653 5654 5654 5655 5655 5655 5656 5657 5659 5659 5659 5661 5661 5661
5630 5631 5631 5632 5630 5630 5632 5634 5633 5636 5641 5642 5641 5640 5638 5637 5638 5640 5641 5642 5642 5642 5642 5642 5641 5642 5642 5642 5642 5642 5643 5643 5644 5644 5645 5647 5648 5649 5650 5650 5651 5651 5652 5653 5654 5654 5655 5656 5656
5622 5623 5621 5621 5620 5621 5622 5624 5625 5629 5632 5632 5630 5629 5630 5631 5632 5634 5635 5635 5635 5635 5636 5635 5635 5635 5635 5635 5636 5636 5636 5637 5637 5637 5638 5639 5642 5643 5644 5644 5644 5646 5646 5647 5647 5649 5650 5650 5651
5613 5612 5613 5613 5613 5613 5612 5616 5615 5623 5623 5622 5621 5622 5623 5624 5625 5626 5626 5627 5627 5628 5629 5628 5628 5628 5629 5629 5629 5629 5629 5629 5629 5630 5631 5632 5634 5636 5636 5638 5638 5639 5640 5641 5642 5643 5643 5644 5644
5601 5601 5604 5605 5604 5604 5603 5609 5611 5616 5613 5613 5614 5615 5615 5616 5617 5618 5619 5620 5621 5621 5621 5621 5621 5621 5622 5622 5622 5623 5622 5622 5622 5623 5624 5625 5626 5628 5629 5630 5632 5632 5633 5634 5635 5636 5636 5636 5637
5591 5594 5598 5599 5595 5595 5594 5606 5609 5606 5604 5605 5607 5607 5607 5608 5609 5611 5612 5612 5613 5613 5613 5613 5613 5614 5614 5615 5614 5615 5615 5615 5615 5616 5616 5617 5618 5620 5621 5623 5624 5625 5626 5627 5628 5629 5629 5629 5630
5584 5585 5588 5589 5586 5585 5585 5595 5600 5595 5594 5597 5599 5599 5599 5600 5601 5602 5603 5603 5604 5605 5605 5605 5605 5606 5606 5606 5605 5606 5606 5607 5608 5608 5609 5610 5611 5612 5614 5615 5616 5617 5618 5620 5621 5622 5622 5622 5622
5572 5573 5574 5575 5576 5573 5575 5582 5587 5586 5585 5588 5590 5590 5590 5591 5591 5592 5592 5593 5594 5595 5595 5595 5596 5597 5597 5597 5597 5597 5598 5598 5599 5601 5601 5602 5603 5604 5606 5607 5608 5609 5611 5612 5613 5614 5614 5614 5614
5556 5556 5559 5563 5561 5559 5567 5572 5576 5576 5575 5577 5579 5580 5580 5581 5581 5582 5582 5583 5583 5584 5585 5585 5587 5588 5588 5589 5590 5590 5591 5591 5592 5592 5593 5594 5595 5596 5598 5599 5600 5601 5603 5605 5606 5607 5606 5606 5606
5543 5544 5548 5550 5545 5545 5554 5561 5567 5564 5562 5563 5565 5567 5569 5570 5571 5571 5571 5572 5573 5574 5575 5576 5577 5578 5579 5581 5582 5583 5583 5583 5583 5583 5585 5586 5587 5588 5590 5592 5593 5594 5595 5597 5598 5599 5599 5598 5598
5533 5533 5535 5534 5533 5535 5539 5556 5558 5554 5551 5551 5553 5554 5556 5557 5559 5560 5560 5561 5562 5564 5565 5566 5568 5569 5570 5572 5573 5574 5574 5574 5575 5576 5577 5578 5579 5580 5582 5583 5585 5586 5587 5589 5590 5591 5592 5592 5591
5522 5521 5518 5517 5520 5531 5529 5540 5552 5544 5541 5540 5540 5541 5542 5544 5545 5547 5548 5550 5551 5553 5553 5555 5557 5559 5561 5563 5565 5567 5568 5570 5570 5570 5570 5570 5571 5573 5574 5575 5577 5578 5579 5581 5582 5583 5584 5585 5584
5507 5505 5506 5508 5511 5514 5520 5521 5537 5529 5525 5524 5523 5524 5526 5528 5531 5533 5535 5537 5539 5540 5542 5544 5547 5549 5552 5553 5555 5557 5559 5561 5561 5562 5562 5563 5563 5564 5565 5567 5568 5570 5572 5573 5574 5575 5576 5578 5578
5490 5495 5500 5501 5502 5505 5516 5514 5521 5510 5504 5506 5507 5508 5511 5513 5516 5518 5521 5524 5527 5529 5531 5533 5536 5539 5542 5543 5546 5548 5550 5551 5552 5553 5554 5555 5555 5556 5557 5558 5560 5562 5563 5565 5566 5567 5568 5569 5570
5481 5486 5492 5495 5498 5509 5502 5498 5496 5487 5485 5485 5487 5492 5496 5499 5502 5505 5508 5511 5514 5517 5519 5522 5525 5528 5531 5533 5536 5538 5540 5542 5544 5545 5546 5547 5548 5549 5550 5551 5552 5554 5555 5556 5558 5559 5560 5561 5562
5467 5470 5472 5475 5490 5499 5487 5485 5480 5470 5467 5467 5470 5475 5480 5484 5487 5490 5493 5496 5500 5504 5507 5510 5513 5517 5520 5523 5525 5527 5530 5532 5534 5535 5537 5538 5539 5541 5542 5543 5544 5545 5546 5547 5549 5550 5551 5552 5552
5455 5457 5456 5458 5466 5468 5477 5471 5464 5458 5455 5454 5456 5460 5464 5468 5471 5474 5478 5482 5487 5491 5494 5498 5501 5505 5508 5511 5514 5516 5518 5521 5523 5525 5527 5528 5530 5531 5532 5534 5536 5537 5538 5539 5540 5542 5543 5543 5543
5439 5440 5443 5445 5450 5459 5465 5459 5454 5441 5440 5440 5442 5445 5448 5452 5456 5459 5463 5467 5473 5477 5481 5484 5488 5492 5497 5500 5502 5505 5507 5510 5512 5515 5517 5519 5520 5521 5522 5524 5526 5527 5529 5530 5531 5532 5533 5534 5534
5425 5424 5425 5432 5434 5440 5445 5445 5428 5424 5423 5424 5426 5429 5432 5436 5440 5444 5448 5452 5458 5463 5467 5472 5476 5480 5484 5488 5491 5493 5496 5498 5501 5504 5507 5509 5510 5512 5514 5515 5517 5519 5520 5521 5522 5523 5524 5524 5525
5411 5409 5410 5413 5417 5418 5423 5423 5410 5409 5408 5409 5411 5413 5417 5421 5424 5428 5433 5438 5444 5449 5453 5458 5463 5467 5471 5475 5479 5481 5484 5487 5490 5493 5496 5498 5500 5502 5504 5506 5508 5509 5510 5511 5512 5513 5514 5515 5515